| time (UTC) | temp C | wind direction | speed KPH | gust KPH | rain 1hr cm | rain 24hr cm | rain mn cm | humidity % | barometer mb |
| 20260506044527 | 8 | 316 | 1.6 | 9.7 | 0.00 | 0.00 | 0.00 | 18 | 1013.3 |
| 20260506043022 | 8 | 358 | 1.6 | 8.0 | 0.00 | 0.00 | 0.00 | 20 | 1013.3 |
| 20260506041517 | 8 | 322 | 1.6 | 11.3 | 0.00 | 0.00 | 0.00 | 21 | 1013.4 |
| 20260506040021 | 8 | 29 | 3.2 | 8.0 | 0.00 | 0.00 | 0.00 | 20 | 1013.4 |
| 20260506034518 | 8 | 48 | 3.2 | 9.7 | 0.00 | 0.00 | 0.00 | 20 | 1013.3 |
| 20260506033003 | 9 | 308 | 3.2 | 11.3 | 0.00 | 0.00 | 0.00 | 15 | 1013.3 |
| 20260506031608 | 9 | 15 | 0.0 | 12.9 | 0.00 | 0.00 | 0.00 | 13 | 1013.4 |
| 20260506030055 | 10 | 37 | 1.6 | 8.0 | 0.00 | 0.00 | 0.00 | 11 | 1013.4 |
| 20260506024607 | 10 | 312 | 1.6 | 6.4 | 0.00 | 0.00 | 0.00 | 13 | 1013.3 |
| 20260506023047 | 10 | 42 | 3.2 | 12.9 | 0.00 | 0.00 | 0.00 | 13 | 1013.3 |
| 20260506021543 | 10 | 4 | 4.8 | 8.0 | 0.00 | 0.00 | 0.00 | 10 | 1013.4 |
| 20260506020038 | 10 | 24 | 3.2 | 9.7 | 0.00 | 0.00 | 0.00 | 6 | 1013.5 |
| 20260506014535 | 10 | 343 | 0.0 | 9.7 | 0.00 | 0.00 | 0.00 | 8 | 1013.5 |
| 20260506013039 | 10 | 31 | 1.6 | 12.9 | 0.00 | 0.00 | 0.00 | 11 | 1013.4 |
| 20260506011526 | 10 | 340 | 3.2 | 14.5 | 0.00 | 0.00 | 0.00 | 14 | 1013.4 |
| 20260506010026 | 10 | 36 | 3.2 | 11.3 | 0.00 | 0.00 | 0.00 | 17 | 1013.5 |
| 20260506004523 | 10 | 92 | 3.2 | 14.5 | 0.00 | 0.00 | 0.00 | 19 | 1013.5 |
| 20260506003021 | 10 | 21 | 1.6 | 12.9 | 0.00 | 0.00 | 0.00 | 23 | 1013.6 |
| 20260506001521 | 10 | 57 | 3.2 | 16.1 | 0.00 | 0.00 | 0.00 | 29 | 1013.7 |
| 20260506000016 | 11 | 353 | 4.8 | 14.5 | 0.00 | 0.00 | 0.00 | 35 | 1013.7 |
| 20260505234513 | 11 | 332 | 4.8 | 14.5 | 0.00 | 0.00 | 0.00 | 38 | 1013.6 |
| 20260505233018 | 11 | 37 | 3.2 | 19.3 | 0.00 | 0.00 | 0.00 | 40 | 1013.6 |
| 20260505231510 | 11 | 329 | 3.2 | 12.9 | 0.00 | 0.00 | 0.00 | 39 | 1013.5 |
| 20260505230018 | 11 | 36 | 3.2 | 17.7 | 0.00 | 0.00 | 0.00 | 40 | 1013.7 |
| 20260505224501 | 11 | 20 | 3.2 | 17.7 | 0.00 | 0.00 | 0.00 | 40 | 1013.6 |
| 20260505223110 | 11 | 10 | 6.4 | 17.7 | 0.00 | 0.00 | 0.00 | 44 | 1013.5 |
| 20260505221554 | 11 | 13 | 4.8 | 16.1 | 0.00 | 0.00 | 0.00 | 50 | 1013.3 |
| 20260505220049 | 11 | 358 | 8.0 | 16.1 | 0.00 | 0.00 | 0.00 | 52 | 1013.3 |
| 20260505214544 | 11 | 328 | 4.8 | 22.5 | 0.00 | 0.00 | 0.00 | 54 | 1013.3 |
| 20260505213051 | 12 | 48 | 4.8 | 17.7 | 0.00 | 0.00 | 0.00 | 55 | 1013.2 |
| 20260505211535 | 12 | 353 | 4.8 | 16.1 | 0.00 | 0.00 | 0.00 | 55 | 1013.1 |
| 20260505210031 | 12 | 339 | 6.4 | 14.5 | 0.00 | 0.00 | 0.00 | 54 | 1013.0 |
| 20260505204528 | 12 | 58 | 8.0 | 14.5 | 0.00 | 0.00 | 0.00 | 55 | 1013.0 |
| 20260505203041 | 12 | 353 | 4.8 | 17.7 | 0.00 | 0.00 | 0.00 | 54 | 1012.9 |
| 20260505201527 | 12 | 37 | 6.4 | 16.1 | 0.00 | 0.00 | 0.00 | 56 | 1012.9 |
| 20260505200031 | 13 | 43 | 4.8 | 19.3 | 0.00 | 0.00 | 0.00 | 55 | 1012.7 |
| 20260505194515 | 13 | 18 | 6.4 | 16.1 | 0.00 | 0.00 | 0.00 | 57 | 1012.5 |
| 20260505193112 | 13 | 335 | 4.8 | 14.5 | 0.00 | 0.00 | 0.00 | 59 | 1012.3 |
| 20260505191508 | 13 | 306 | 1.6 | 8.0 | 0.00 | 0.00 | 0.00 | 59 | 1012.1 |
| 20260505190004 | 13 | 318 | 1.6 | 8.0 | 0.00 | 0.00 | 0.00 | 59 | 1012.1 |
| 20260505184502 | 13 | 348 | 0.0 | 9.7 | 0.00 | 0.00 | 0.00 | 60 | 1012.0 |
| 20260505183107 | 13 | 337 | 3.2 | 12.9 | 0.00 | 0.00 | 0.00 | 60 | 1012.0 |
| 20260505181556 | 14 | 311 | 3.2 | 8.0 | 0.00 | 0.00 | 0.00 | 60 | 1012.0 |
| 20260505180051 | 14 | 348 | 1.6 | 14.5 | 0.00 | 0.00 | 0.00 | 60 | 1012.0 |
| 20260505174550 | 14 | 313 | 4.8 | 16.1 | 0.00 | 0.00 | 0.00 | 60 | 1012.0 |
| 20260505173047 | 14 | 317 | 8.0 | 16.1 | 0.00 | 0.00 | 0.00 | 60 | 1012.1 |
| 20260505171538 | 14 | 348 | 3.2 | 16.1 | 0.00 | 0.00 | 0.00 | 60 | 1012.1 |
| 20260505170037 | 14 | 328 | 3.2 | 14.5 | 0.00 | 0.00 | 0.00 | 60 | 1012.1 |
| 20260505164546 | 14 | 6 | 6.4 | 14.5 | 0.00 | 0.00 | 0.00 | 60 | 1012.1 |
| 20260505163025 | 14 | 333 | 4.8 | 9.7 | 0.00 | 0.00 | 0.00 | 60 | 1012.1 |
| 20260505161520 | 14 | 6 | 1.6 | 9.7 | 0.00 | 0.00 | 0.00 | 60 | 1012.1 |
| 20260505153010 | 16 | 321 | 4.8 | 14.5 | 0.00 | 0.00 | 0.00 | 60 | 1012.3 |
| 20260505151502 | 16 | 333 | 1.6 | 8.0 | 0.00 | 0.00 | 0.00 | 58 | 1012.3 |
| 20260505124525 | 15 | 358 | 3.2 | 8.0 | 0.00 | 0.00 | 0.00 | 59 | 1012.8 |
| 20260505123014 | 16 | 37 | 3.2 | 9.7 | 0.00 | 0.00 | 0.00 | 59 | 1012.9 |
| 20260505121510 | 16 | 19 | 1.6 | 12.9 | 0.00 | 0.00 | 0.00 | 59 | 1012.9 |
| 20260505120006 | 15 | 338 | 4.8 | 14.5 | 0.00 | 0.00 | 0.00 | 59 | 1012.8 |
| 20260505114501 | 15 | 304 | 4.8 | 12.9 | 0.00 | 0.00 | 0.00 | 58 | 1012.9 |
| 20260505113101 | 14 | 40 | 4.8 | 9.7 | 0.00 | 0.00 | 0.00 | 55 | 1013.0 |
| 20260505111556 | 13 | 339 | 1.6 | 11.3 | 0.00 | 0.00 | 0.00 | 52 | 1013.2 |
| 20260505101533 | 13 | 2 | 4.8 | 11.3 | 0.00 | 0.00 | 0.00 | 45 | 1013.6 |
| 20260505100040 | 13 | 307 | 3.2 | 17.7 | 0.00 | 0.00 | 0.00 | 42 | 1013.5 |
| 20260505094524 | 13 | 353 | 1.6 | 11.3 | 0.00 | 0.00 | 0.00 | 30 | 1013.6 |
| 20260505093019 | 13 | 310 | 3.2 | 12.9 | 0.00 | 0.00 | 0.00 | 28 | 1013.6 |
| 20260505091514 | 13 | 297 | 8.0 | 19.3 | 0.00 | 0.00 | 0.00 | 23 | 1013.7 |
| 20260505090010 | 13 | 62 | 6.4 | 16.1 | 0.00 | 0.00 | 0.00 | 9 | 1013.6 |
| 20260505084506 | 12 | 289 | 6.4 | 12.9 | 0.00 | 0.00 | 0.00 | 1 | 1013.8 |
| 20260505083005 | 12 | 304 | 4.8 | 12.9 | 0.00 | 0.00 | 0.00 | 1 | 1013.9 |
| 20260505081604 | 11 | 311 | 3.2 | 9.7 | 0.00 | 0.00 | 0.00 | 1 | 1013.9 |
| 20260505080059 | 11 | 33 | 4.8 | 12.9 | 0.00 | 0.00 | 0.00 | 1 | 1014.0 |
| 20260505074609 | 11 | 334 | 3.2 | 8.0 | 0.00 | 0.00 | 0.00 | 1 | 1013.8 |
| 20260505073052 | 11 | 316 | 1.6 | 8.0 | 0.00 | 0.00 | 0.00 | 1 | 1013.9 |
| 20260505071545 | 11 | 4 | 3.2 | 9.7 | 0.00 | 0.00 | 0.00 | 1 | 1014.0 |
| 20260505070040 | 11 | 325 | 1.6 | 8.0 | 0.00 | 0.00 | 0.00 | 1 | 1014.0 |
| 20260505064537 | 10 | 33 | 3.2 | 8.0 | 0.00 | 0.00 | 0.00 | 1 | 1014.0 |
| 20260505063039 | 10 | 301 | 1.6 | 6.4 | 0.00 | 0.00 | 0.00 | 1 | 1014.0 |
| 20260505061532 | 10 | 320 | 3.2 | 9.7 | 0.00 | 0.00 | 0.00 | 1 | 1013.9 |
| 20260505060021 | 10 | 297 | 0.0 | 8.0 | 0.00 | 0.00 | 0.00 | 1 | 1014.0 |
| 20260505054523 | 10 | 343 | 3.2 | 8.0 | 0.00 | 0.00 | 0.00 | 1 | 1014.0 |
| 20260505053012 | 10 | 297 | 0.0 | 6.4 | 0.00 | 0.00 | 0.00 | 1 | 1014.0 |